Location: Neuvy Saint Sepulchre
(46.5953°N, 1.8122°E)
Time: 20:29:46
(UTC+02:00)

ISS - Pass Details

Date: 23 March 2019
Orbit: 408 x 410 km, 51.6° (Epoch: 22 April)

Event Time Altitude Azimuth Distance (km) Brightness Sun altitude
Rises 20:15:28 0° 227° (SW) 2,326 0.5 -12.1°
Reaches altitude 10° 20:17:34 10° 222° (SW) 1,468 -0.6 -12.4°
Maximum altitude 20:20:46 48° 146° (SSE) 539 -3.5 -13.0°
Enters shadow 20:22:31 23° 81° (E) 924 -2.6 -13.3°
